Regional Weather Roundup
Issued by NWS

Home | Current Version | Previous Version | Text Only | Print | Product List | Glossary Off
Versions: 1 2 3 4 5 6 7 8 9 10 11 12 13 14 15 16 17 18 19 20 21 22 23 24 25 26 27 28 29 30 31 32 33 34 35 36 37 38 39 40 41 42 43 44 45 46 47 48 49 50

000
ASUS43 KMPX 191010
RWRMN
WEATHER ROUNDUP FOR MINNESOTA
NATIONAL WEATHER SERVICE TWIN CITIES/CHANHASSEN MN
500 AM CDT SAT APR 19 2014


NOTE: "FAIR" INDICATES FEW OR NO CLOUDS BELOW 12,000 FEET WITH NO
SIGNIFICANT WEATHER AND/OR OBSTRUCTIONS TO VISIBILITY. N/A MEANS
CURRENT SKY AND/OR WEATHER CONDITIONS ARE NOT AVAILABLE.

MNZ060>063-068>070-191100-
   Twin Cities Metro

CITY           SKY/WX    TMP DP  RH WIND       PRES   REMARKS
TWIN CITIES    MOCLDY    44  30  57 SE25G35   30.14F
ST PAUL        CLOUDY    45  29  53 SE16G28   30.17S
CRYSTAL        PTCLDY    46  29  51 SE21G33   30.10F
BLAINE         PTCLDY    46  30  53 SE18G26   30.12F
EDEN PRAIRIE   PTCLDY    46  30  53 SE22      30.11F
LAKEVILLE      MOCLDY    41  30  65 SE14      30.16F
SOUTH ST PAUL  CLOUDY    48  31  50 SE15G23   30.16F
LAKE ELMO      CLOUDY    43  30  61 SE12      30.19S
$$
MNZ001>005-007-008-013>017-022>024-027-028-191100-
   Northwest Minnesota

CITY           SKY/WX    TMP DP  RH WIND       PRES   REMARKS
BEMIDJI        CLOUDY    39  30  71 SE14      29.90R
HALLOCK        MOCLDY    39  30  70 SE18G25   29.74S
ROSEAU         CLOUDY    34  30  86 SE22G33   29.83F WCI  22
WARROAD        CLOUDY    36  30  80 SE20G30   29.88F
THIEF RVR FALL MOCLDY    43  28  56 SE17      29.78F
CROOKSTON      MOCLDY    46  34  61 S21G30    29.75F
FOSSTON        CLOUDY    45  30  57 SE25G35   29.79F
DETROIT LAKES  RAIN      43  34  70 SE20G29   29.83S
MOORHEAD       CLOUDY    48  37  66 SE31G44   29.75S
PARK RAPIDS    LGT RAIN  42  32  67 SE25G35   29.91F
$$
MNZ006-009>011-018-025>026-191100-
   North Central Minnesota

CITY           SKY/WX    TMP DP  RH WIND       PRES   REMARKS
BAUDETTE       MIX PCPN  34  30  85 SE16G26   29.93F WCI  24
FLAG ISLAND    CLOUDY    34  30  86 SE16G28   29.91S WCI  23
INTL FALLS     LGT SNOW  32  30  92 SE28G33   30.00F VSB 1   WCI  18
WASKISH        LGT RAIN  34  30  86 E13       29.94R WCI  25
BIG FORK       RAIN      36  28  75 SE21G37   29.98F
LONGVILLE      DRIZZLE   39  27  60 SE9       30.00R
GRAND RAPIDS   CLOUDY    36  21  55 SE14G25   30.03S
CRANE LAKE     LGT SNOW  32  27  80 SE6       30.16S WCI  26
ORR            LGT SNOW  34  27  75 SE15G24   30.06F WCI  24
COOK           LGT SNOW  34  27  75 SE10G31   30.10F WCI  26
$$
MNZ012-019>021-037-191100-
   Northeast Minnesota

CITY           SKY/WX    TMP DP  RH WIND       PRES   REMARKS
DULUTH         LGT RAIN  33  25  72 E16       30.16F WCI  23
ELY            CLOUDY    34  25  69 SE16G24   30.17F WCI  23
HIBBING        LGT RAIN  37  24  59 SE21G31   30.09F
EVELETH        LGT RAIN  36  27  69 E10G18    30.12F
DULUTH HARBOR  CLOUDY    34  30  86 NE22      30.18F WCI  22
TWO HARBORS    CLOUDY    32  25  74 NE15      30.20F WCI  22
SILVER BAY     MOCLDY    30  28  93 NE10      30.24F WCI  21
GRAND MARAIS     N/A     33  28  81 NE13      30.35F WCI  24
G MARAIS ARPRT LGT SNOW  27  23  86 E12G20    30.29F WCI  16
$$
MNZ029>031-032-039>041-046>048-054>057-064-191100-
   West Central Minnesota

CITY           SKY/WX    TMP DP  RH WIND       PRES   REMARKS
FERGUS FALLS   CLOUDY    48  34  57 S28G35    29.80F
WHEATON        CLOUDY    50  41  71 SE23      29.80F
MORRIS         CLOUDY    46  37  71 SE31      29.84F
ALEXANDRIA     LGT RAIN  44  34  67 SE30G41   29.88F
ELBOW LAKE     CLOUDY    47  36  66 SE28G37   29.84S
WADENA         RAIN      41  34  75 SE21G29   29.90F
GLENWOOD       CLOUDY    46  36  66 SE24G33   29.92F
APPLETON       CLOUDY    52  37  58 S18G30    29.87R
BENSON         CLOUDY    46  36  66 S22G32    29.89F
ORTONVILLE     CLOUDY    46  37  71 SE18G24   29.82F
MADISON        CLOUDY    50  41  71 SE22      29.84F
WILLMAR        FAIR      45  34  65 SE24G32   29.97F
$$
MNZ033>034-036-042>043-049>051-058-059-191100-
   Central Minnesota

CITY           SKY/WX    TMP DP  RH WIND       PRES   REMARKS
ST CLOUD       MOCLDY    45  29  53 SE16G23   30.04F
SAUK CENTRE    PTSUNNY   43  33  68 SE17G24   29.96F
PAYNESVILLE    CLOUDY    44  32  63 SE18      29.99F
AITKIN         DRIZZLE   46  27  46 SE24G32   30.00F
PINE RIVER     CLOUDY    39  28  65 SE15G29   30.01F
BRAINERD       LGT RAIN  48  26  42 SE25G37   29.99F
STAPLES        CLOUDY    41  30  65 S21G33    29.93R
LONG PRAIRIE   CLOUDY    39  32  75 SE17      29.95F
LITTLE FALLS   CLOUDY    37  30  75 SE17G23   30.01F
LITCHFIELD     CLOUDY    46  34  61 SE16G25   30.03S
BUFFALO        MOCLDY    45  31  57 SE15G24   30.08S
MAPLE LAKE     MOCLDY    44  33  63 SE10G17   30.07R
$$
MNZ037-044-045-052-053-191100-
   East Central Minnesota

CITY           SKY/WX    TMP DP  RH WIND       PRES   REMARKS
PRINCETON      MOCLDY    43  28  56 SE12      30.10R
MORA           CLOUDY    37  27  65 SE12      30.13S
CAMBRIDGE      PTCLDY    45  28  53 SE12G23   30.10F
RUSH CITY      PTCLDY    41  28  59 SE18G30   30.11F
HINCKLEY       CLOUDY    41  28  60 SE12G17   30.13F
CLOQUET        CLOUDY    34  25  69 E15G22    30.10F WCI  24
MCGREGOR       CLOUDY    39  27  60 SE20G28   30.04F
$$
MNZ071>073-080-081-089-090-097-098-191100-
   Southwest Minnesota

CITY           SKY/WX    TMP DP  RH WIND       PRES   REMARKS
MONTEVIDEO     CLOUDY    48  37  66 S20G30    29.91S
GRANITE FALLS  CLOUDY    46  36  69 SE24G31   29.93F
CANBY          CLOUDY    55  41  60 S21G32    29.85S
MARSHALL       CLOUDY    52  37  58 S23G30    29.88F
REDWOOD FALLS  CLOUDY    47  34  60 SE29G38   29.96F
OLIVIA         CLOUDY    45  34  65 SE22G31   29.96S
PIPESTONE      MOCLDY    52  39  62 S24       29.92F
WINDOM         MOCLDY    48  37  66 SE13      30.04S
WORTHINGTON    MOCLDY    48  34  57 S13       30.04R
JACKSON        MOCLDY    50  36  57 S12G23    30.06R
TRACY          CLOUDY    50  39  65 S21G32    29.94F
SLAYTON        CLOUDY    49  39  68 S18       29.98S
$$
MNZ065>067-074>077-082>085-091>093-191100-
   South Central Minnesota

CITY           SKY/WX    TMP DP  RH WIND       PRES   REMARKS
MANKATO        PTCLDY    43  32  65 SE22      30.11F
NEW ULM        MOCLDY    46  34  61 SE18G25   30.05F
ST JAMES       MOCLDY    45  32  61 SE15      30.09S
FAIRMONT       PTCLDY    46  28  49 SE18      30.11R
GLENCOE        MOCLDY    46  32  58 SE17G26   30.05F
FARIBAULT      MOCLDY    46  30  53 SE18G25   30.16F
OWATONNA       MOCLDY    43  34  70 SE21G28   30.17R
WASECA         MOCLDY    43  34  70 SE18G24   30.16R
ALBERT LEA     PTCLDY    43  34  70 SE13G21   30.17R
$$
MNZ078>079-086>088-094>096-191100-
   Southeast Minnesota

CITY           SKY/WX    TMP DP  RH WIND       PRES   REMARKS
ROCHESTER      CLEAR     39  31  72 SE20      30.21R
RED WING       MOCLDY    45  30  57 SE14      30.22R
STANTON        PTCLDY    44  31  61 SE15G22   30.16S
DODGE CENTER   PTCLDY    43  36  75 SE21G30   30.19R
WINONA         CLEAR     41  32  70 SE14      30.28S
AUSTIN         CLEAR     41  34  75 SE13      30.18S
PRESTON        CLEAR     39  31  72 SE17G25   30.24S
$$
ABBREVIATIONS USED IN REMARKS
   TC - TEMPERATURES IN CELSIUS
  WCI - WIND CHILL INDEX
   HX - HEAT INDEX
  VSB - VISIBILITY
$$


USA.gov is the U.S. government's official web portal to all federal, state and local government web resources and services.